Regional Weather Roundup
Issued by NWS Wakefield, VA

Home | Current Version | Previous Version | Graphics & Text | Print | Product List | Glossary On
Versions: 1 2 3 4 5 6 7 8 9 10 11 12 13 14 15 16 17 18 19 20 21 22 23 24 25 26 27
000
ASUS41 KAKQ 231715
RWRAKQ

REGIONAL WEATHER ROUNDUP
NATIONAL WEATHER SERVICE WAKEFIELD VA
100 PM EDT THU MAR 23 2017

Note: "fair" indicates few or no clouds below 12,000 feet with no
significant weather and/or obstructions to visibility. * = Denotes
station may not report precipitation (e.g., rain,snow,etc.),
thunder or fog.

VAZ042-051-052>054-056-231800-
NORTHERN VIRGINIA

CITY           SKY/WX    TMP DP  RH WIND       PRES   REMARKS
WASH NATIONAL  MOSUNNY   40   4  22 VRB3      30.64F
DULLES         SUNNY     41   4  21 NW7       30.62F
FORT BELVOIR   SUNNY     41   5  22 VRB3      30.64F
QUANTICO       MOSUNNY   41   7  24 CALM      30.66F
FREDERICKSBRG* SUNNY     41  11  29 N3        30.63F
STAFFORD*      SUNNY     40  10  28 E5        30.67F
WARRENTON      SUNNY     43  -3  14 NW5       30.62F
CULPEPER*      SUNNY     43  13  30 CALM      30.63F
MANASSAS*      SUNNY     41   8  25 S6        30.63F
LEESBURG*      SUNNY     41  10  28 W3        30.63F
WINCHESTER     SUNNY     37   9  30 CALM      30.59F
FRONT ROYAL*   SUNNY     39  10  30 CALM      30.58F
LURAY*         SUNNY     43  16  33 S5        30.57F
$$

VAZ048-049-060>072-079>083-231800-
CENTRAL AND SOUTH CENTRAL VIRGINIA

CITY           SKY/WX    TMP DP  RH WIND       PRES   REMARKS
RICHMOND       MOSUNNY   42  11  28 S3        30.63F
CHESTERFIELD*  FAIR      45   7  21 N8        30.64F
PETERSBURG*    SUNNY     42   8  24 N5        30.63F
HANOVER        SUNNY     43  11  27 W8        30.64F
TAPPAHANNOCK*  SUNNY     41 -11  11 CALM      30.65F
QUINTON*       FAIR      42  13  31 E8        30.63F
CHARLOTTSVILLE SUNNY     44   9  23 VRB3      30.60F
GORDONSVILLE*  SUNNY     43  11  27 W3        30.60F
ORANGE*        SUNNY     43  12  28 W5        30.62F
LOUISA*        SUNNY     46  14  27 W7        30.60F
BUMPASS*       FAIR      42   8  25 CALM      30.62F
FARMVILLE*     SUNNY     47  13  25 N3        30.60F
CREWE*         FAIR      44  12  27 CALM      30.60F
FORT PICKETT*  FAIR      45   1  16 NE8       30.61F
CHASE CITY*    FAIR      46  13  26 CALM      30.60F
CLARKSVILLE*   FAIR      45  18  33 S6        30.60F
SOUTH HILL*    SUNNY     44  15  30 NE5       30.66F
LAWRENCEVILLE* FAIR      46  12  25 NE3       30.61F
EMPORIA*       SUNNY     45  16  31 E5        30.63F
$$

VAZ088>098-231800-
SOUTHEAST VIRGINIA

CITY           SKY/WX    TMP DP  RH WIND       PRES   REMARKS
NORFOLK        SUNNY     39  14  36 VRB5      30.65F
VIRGINIA BEACH SUNNY     40  17  39 NE10      30.64F
NORFOLK NAVAL  NOT AVBL
WEST POINT*    SUNNY     42   5  21 E5        30.66F
SALUDA*        FAIR      36  17  46 SE9       30.66F
NEWPORT NEWS   SUNNY     40  18  41 E8        30.65F
LANGLEY AFB    SUNNY     39   9  29 NE13      30.65F
FORT EUSTIS    SUNNY     45  14  29 NE7       30.62F
WILLIAMSBURG*  SUNNY     46  18  31 CALM      30.65F
HR EXEC AP*    FAIR      43  16  33 E8        30.64F
FRANKLIN*      SUNNY     43  16  33 SE5       30.64F
US460-WAKEFLD  SUNNY     45  15  30 VRB6      30.63F
$$

VAZ020-022-025-037-045-231800-
WEST CENTRAL AND SOUTHWEST VIRGINIA

CITY           SKY/WX    TMP DP  RH WIND       PRES   REMARKS
STAUNTON*      SUNNY     42  13  31 S9        30.57F
WAYNESBORO*    SUNNY     41  13  31 SE6       30.54F
HOT SPRINGS VA SUNNY     36   3  25 SE10      30.43S
LYNCHBURG      SUNNY     44  12  27 VRB6      30.58F
DANVILLE       SUNNY     47  12  24 VRB6      30.58F
SOUTH BOSTON*  FAIR      46  13  26 CALM      30.60F
MARTINSVILLE   SUNNY     47   9  21 CALM      30.58F
ROANOKE        MOSUNNY   44  11  26 SE12      30.56F
BLACKSBURG     SUNNY     44  14  30 S7        30.53F
DUBLIN*        SUNNY     47  13  25 SW9       30.50F
MARION*        SUNNY     50  16  25 E5        30.46F
HILLSVILLE*    SUNNY     42  15  33 CALM      30.46F
RICHLANDS*     FAIR      52  21  29 CALM      30.40F
WISE*          SUNNY     52  19  28 CALM      30.41F
ABINGDON*      SUNNY     55  20  25 SE5       30.42F
$$

MDZ021>025-VAZ099-100-231800-
SOUTHERN MARYLAND AND THE DELMARVA PENINSULA

CITY           SKY/WX    TMP DP  RH WIND       PRES   REMARKS
PATUXENT RIVER MOSUNNY   38  11  32 VRB5      30.65F
BAY BRIDGE APT SUNNY     36   3  25 W6        30.66F
LEONARDTOWN    SUNNY     36  10  35 S3        30.65F
DOVER          SUNNY     37  11  33 CALM      30.62F
GEORGETOWN     SUNNY     38   9  30 VRB3      30.63F
EASTON         SUNNY     39   9  28 NW7       30.67F
CAMBRIDGE      SUNNY     37   5  25 VRB7      30.64F
SALISBURY      SUNNY    N/A N/A N/A N3        30.62F
OCEAN CITY     SUNNY     36  15  42 E10       30.64F
WALLOPS ISLAND MOSUNNY   37  16  42 VRB5      30.65F
ACCOMACK*      SUNNY     41  14  34 S5        30.64F
$$

NCZ012>017-030>032-231800-
NORTH CENTRAL AND EASTERN NORTH CAROLINA

CITY           SKY/WX    TMP DP  RH WIND       PRES   REMARKS
ROANOKE RAPIDS FAIR      46  21  36 E6        30.62F
RALEIGH        MOSUNNY   50  18  28 VRB6      30.59F
ELIZABETH CITY SUNNY     43  20  39 NE14      30.64F
AHOSKIE*       NOT AVBL
EDENTON*       SUNNY     47  22  37 NE8       30.63F
CURRITUCK*     SUNNY     41  22  47 E8G17     30.65S
KILL DEVIL HLS NOT AVBL
MANTEO         SUNNY     42  24  48 NE16      30.64S
CAPE HATTERAS  SUNNY     48  27  44 NE14G25   30.60S
TARBORO*       NOT AVBL
GOLDSBORO      SUNNY     49  20  32 N8        30.58F
WASHINGTON     SUNNY     47  22  38 NE12      30.61F
GREENVILLE     SUNNY     46  19  34 NE5       30.60F
NEW BERN       SUNNY     49  26  41 NE10G18   30.60F
WILMINGTON     SUNNY     52  29  41 E10       30.57F
$$

VAZ048-231800-
ELSEWHERE

CITY           SKY/WX    TMP DP  RH WIND       PRES   REMARKS
HARRISBURG PA  MOSUNNY   37   8  30 CALM      30.60F
BALTIMORE      MOSUNNY   40   3  21 CALM      30.63F
ANNAPOLIS      SUNNY     36  16  44 SE12      30.65F
ANDREWS AFB    SUNNY     40   5  23 CALM      30.62F
PHILADELPHIA   MOSUNNY   39  10  30 SE6       30.62F
HENDERSON NC   SUNNY     44  13  28 NE6       30.60F
GREENSBORO     MOSUNNY   48  12  23 VRB5      30.55F
ROCKY MOUNT    SUNNY     48  16  27 E8        30.61F
$$

VAZ100-231800-
MARINE

STATION/POSITION TIME  TEMP    WIND        PRES    WAVE   SWELL
                       AIR SEA DIR/SP/G            HT/PER HT/PER
                 (UTC) (F)     (DEG/KT/KT) (MB)    (FT/S) (FT/S)
CAPE MAY NJ      1648   30 42  260/  9/ 11 1037.2F
LEWES DE         1648   30 41   10/  3/  7 1037.8F
OCEAN-CITY-INLET 1648   33 42   90/  8/ 11 1037.9F
WACHAPREAGUE VA  1648   35 46  110/  8/ 10 1037.8F
THOMAS POINT MD  1700   33 43  110/  4/  5   N/A
GOOSES REEF MD   1700   33 44   90/  2/  4 1038.6    1
COVE POINT MD    1648   32      20/  6/  8 1038.7F
SOLOMONS ISLAND  1648   34 45  120/  6/  8   N/A
BISHOPS HEAD MD  1648   35 42   40/  5/  8 1038.1F
PINEY POINT MD   1648          200/  7/  9   N/A
POTOMAC MD       1700   33 45  120/  6/  8 1037.4    0
CAMBRIDGE MD     1648   34 43   10/  2/  4 1037.2F
LEWISETTA VA     1648   33 47  130/  6/  8 1038.2F
RAPPAHANNOCK LGT 1648          340/  9/ 11 1038.8F
STINGRAY PT      1650   32      50/  6/ 10 1038.5F
YORK RVR RNG VA  1648   35      60/ 13/ 15 1037.4F
YORKTOWN VA      1648   36 48   80/  9/ 13 1037.7F
JAMESTOWN VA     1700   40 50   90/  8/ 12   N/A     0
DOMINION TERM VA 1648   38      50/  6/  9 1038.1F
KIPTOPEKE VA     1648      47  100/  5/  8   N/A
CHES BAY BRIDGE  1648   35 47   40/  6/ 12 1038.0F
CAPE HENRY VA    1648   35      30/ 10/ 13   N/A
WILLOUBY STN VA  1648   35      30/ 12/ 13 1038.9F
S CRANEY ISL VA  1648   35      30/ 10/ 14 1037.8F
CAPE HENRY BUOY  1642      45                N/A     4/ 7
CAPE CHARLES BUO 1651      45                N/A     4/ 7
OFFSHORE WE BUOY 1651      45                N/A     6/ 7   2/11
64NM E OF VA BCH 1650   38 50   20/ 17/ 21 1036.5F   5/ 8   3/ 8
DUCK PIER NC     1648   37 47   30/ 16/ 19 1037.0S
44100 DUCK FRF   1635      47                N/A     6/ 8   2/11
44056 DUCK FRF   1630      47                N/A     6/ 7   2/11
OREGON INLET NC  1642   40 48   20/ 13/ 18 1037.0F
HATTERAS NC      1648   42 51   30/ 13/ 19 1036.0R
DIAMOND SHLS NC  1650   46 74   30/ 17/ 23 1035.5F   9/11   7/11
CAPE LOOKOUT NC  1600   44      40/ 22/ 26 1035.8R
$$




USA.gov is the U.S. government's official web portal to all federal, state and local government web resources and services.